Retour au catalogue

THORAD DELTA 1 DEB

ActifSSO
NORAD 8554·DEBRIS·🇺🇸 United States

Lancé Nov 15, 1974 depuis Vandenberg Space Force Base

Loading…

Prochains Passages (prochaines 24 heures)

TLE

FraisSource: Space-Track

Époque: Sep 14, 2026, 10:27 UTC

1 08554U 74089CR  26257.43559289 -.00000022  00000-0  14587-3 0  9990
2 08554 101.9492 249.6906 0034795 143.3832  14.6706 12.56319064375037

Suivez THORAD DELTA 1 DEB en temps réel avec AllMySat

Download on the App Store